Regional Weather Roundup
Issued by NWS

Home | Current Version | Previous Version | Text Only | Print | Product List | Glossary Off
Versions: 1 2 3 4 5 6 7 8 9 10 11 12 13 14 15 16 17 18 19 20 21 22 23 24 25 26 27 28 29 30 31 32 33 34 35 36 37 38 39 40 41 42 43 44 45 46 47 48 49 50

000
ASUS43 KLMK 301202
RWRKY
KENTUCKY REGIONAL WEATHER ROUNDUP
NATIONAL WEATHER SERVICE LOUISVILLE KY
800 AM EDT TUE SEP 30 2014

NOTE "FAIR" INDICATES FEW OR NO CLOUDS BELOW 12,000 FEET
WITH NO SIGNIFICANT WEATHER AND/OR OBSTRUCTIONS TO VISIBILITY.

KYZ001>023-026-027-061>063-070>075-301300-
WESTERN AND SOUTH CENTRAL KENTUCKY

CITY           SKY/WX    TMP DP  RH WIND       PRES   REMARKS
PADUCAH        CLEAR     53  52  96 CALM      29.95R
HENDERSON      NOT AVBL
OWENSBORO      CLEAR     55  53  93 CALM      29.96S
HOPKINSVILLE   CLEAR     56  56 100 NE1       29.96R
BOWLING GREEN  FOG       52  51  97 CALM      29.97S VSB<1/4
GLASGOW        FOG       50  50 100 CALM      29.97R VSB 3/4
$$

KYZ024-025-028>034-038-045-046-053-301300-
NORTH CENTRAL KENTUCKY

CITY           SKY/WX    TMP DP  RH WIND       PRES   REMARKS
LOUISVILLE/SDF CLEAR     58  54  86 SE3       29.96R
LOUISVILLE/LOU CLEAR     56  54  93 CALM      29.96R
FORT KNOX      CLEAR     51  50  96 W1        29.95R
$$

KYZ035>037-039>044-047>052-055>060-089>105-301300-
NORTHEAST KENTUCKY

CITY           SKY/WX    TMP DP  RH WIND       PRES   REMARKS
LEXINGTON      CLEAR     54  50  86 S6        29.96R
COVINGTON      PTCLDY    54  51  90 CALM      29.95R
FRANKFORT      CLEAR     51  49  92 CALM      29.95R
$$

KYZ054-064>069-076>088-106>120-301300-
SOUTHEAST KENTUCKY

CITY           SKY/WX    TMP DP  RH WIND       PRES   REMARKS
JACKSON        CLEAR     58  55  90 CALM      29.97R FOG
LONDON         FOG       56  55  97 CALM      29.99R VSB<1/4
SOMERSET       FOG       57  57 100 CALM      29.99R VSB<1/4
MIDDLESBORO    FOG       58  58 100 CALM      30.00R VSB 1/4
MONTICELLO     FOG       51  51 100 CALM      30.00R VSB<1/4
$$



USA.gov is the U.S. government's official web portal to all federal, state and local government web resources and services.